Flag for Canada Weather past 2 weeks in Caledon, Ontario, Canada

Now
19 °F

Overcast.


Feels Like: 14 °F
Forecast: 2 / 28 °F
Wind: 3 mph from South

Location: Borden

Current Time: Mar 1, 2015 at 10:44:21 AM

Latest Report: Mar 1, 2015 at 10:00 AM


Visibility: 9 mi

Pressure: 30.41 "Hg

Humidity: 58%

Dew point: 7 °F

Location of CaledonLocation

Historic Weather in Caledon — Graph

°F

Caledon temperature yesterday

Maximum temperature yesterday: 23 °F (at 2:00 PM)
Minimum temperature yesterday: -8 °F (at 12:00 AM)
Average temperature yesterday: 9 °F

Past Weeks' High & Low Weather Summary

 TemperatureHumidityPressure
High23 °F (Feb 28, 2:00 PM)100% (Feb 21, 7:00 PM)30.77 "Hg (Feb 21, 7:00 PM)
Low-33 °F (Feb 16, 7:00 AM)24% (Feb 17, 2:00 PM)29.55 "Hg (Feb 25, 1:00 AM)
Average1 °F67%30.17 "Hg
* Reported Feb 14 9:00 AM — Mar 1 9:00 AM, Caledon, Weather by CustomWeather, © 2015

Note: Actual official high and low records may vary slightly from our data, if they occured in-between our weather recording intervals... More about our weather records

Advertising

Caledon weather history for previous 24 hours

 ConditionsComfort  
Time TempWeatherWind HumidityBarometerVisibility
9:00 AM
Sun, Mar 1
14 °FOvercast.No wind57%30.45 "Hg9 mi
8:00 AM9 °FOvercast.2 mph72%30.46 "Hg9 mi
7:00 AM7 °FOvercast.3 mph72%30.47 "Hg9 mi
6:00 AM5 °FOvercast.3 mph78%30.49 "Hg9 mi
5:00 AM3 °FOvercast.2 mph78%30.51 "Hg9 mi
4:00 AM1 °FPassing clouds.2 mph78%30.53 "Hg9 mi
3:00 AM7 °FPassing clouds.5 mph78%30.55 "Hg9 mi
2:00 AM-4 °FClear.No wind84%30.58 "Hg9 mi
1:00 AM-2 °FClear.2 mph77%30.58 "Hg9 mi
12:00 AM-4 °FClear.5 mph77%30.62 "Hg9 mi
11:00 PM
Sat, Feb 28
1 °FClear.2 mph85%30.64 "Hg9 mi
10:00 PM5 °FClear.3 mph85%30.66 "Hg9 mi
9:00 PM3 °FClear.3 mph78%30.68 "Hg9 mi
8:00 PM10 °FClear.6 mph72%30.69 "Hg9 mi
7:00 PM12 °FClear.6 mph73%30.69 "Hg9 mi
6:00 PM16 °FSunny.10 mph62%30.69 "Hg9 mi
5:00 PM19 °FSunny.12 mph58%30.69 "Hg9 mi
4:00 PM21 °FSunny.14 mph54%30.70 "Hg9 mi
3:00 PM21 °FSunny.13 mph54%30.70 "Hg9 mi
2:00 PM23 °FSunny.12 mph50%30.71 "Hg9 mi
1:00 PM21 °FSunny.6 mphN/A30.73 "Hg9 mi
12:00 PM19 °FSunny.7 mph63%30.75 "Hg9 mi
11:00 AM18 °FSunny.10 mph62%30.76 "Hg9 mi
10:00 AM14 °FSunny.10 mph62%30.77 "Hg9 mi
Weather by CustomWeather, © 2015

See weather overviewHow to use our weather pages